Location: Pcim
(49.7500°N, 19.9670°E)
Time: 22:05:55
(UTC+02:00)

AO-85 - Visible Passes

Search period start: 22 April 2024 00:00
Search period end: 02 May 2024 00:00
Orbit: 516 x 753 km, 64.8° (Epoch: 04 January)

Date Brightness Start Highest point End Pass type
(mag) Time Alt. Az. Time Alt. Az. Time Alt. Az.
22 Apr ? 01:18:57 39° NW 01:19:09 40° NW 01:23:34 10° NNE visible
22 Apr ? 02:57:37 10° NW 03:00:27 16° NNW 03:03:21 10° NNE visible
22 Apr ? 04:39:48 10° NNW 04:42:22 14° N 04:44:59 10° NE visible
22 Apr ? 23:59:28 37° NE 23:59:28 37° NE 00:02:23 10° NE visible
23 Apr ? 01:36:40 21° WNW 01:38:17 26° NNW 01:42:16 10° NNE visible
23 Apr ? 03:17:28 10° NW 03:19:53 14° N 03:22:21 10° NNE visible
23 Apr ? 22:39:56 12° ENE 22:39:56 12° ENE 22:40:24 10° ENE visible
24 Apr ? 00:17:06 58° N 00:17:06 58° N 00:21:13 10° NE visible
24 Apr ? 01:54:16 10° WNW 01:57:32 19° NNW 02:00:58 10° NNE visible
24 Apr ? 03:37:03 10° NNW 03:39:21 13° N 03:41:44 10° NNE visible
24 Apr ? 22:57:25 26° ENE 22:57:25 26° ENE 22:59:47 10° NE visible
25 Apr ? 00:34:34 33° WNW 00:35:34 37° NW 00:39:57 10° NNE visible
25 Apr ? 02:14:07 10° NW 02:16:54 15° NNW 02:19:45 10° NNE visible
25 Apr ? 03:56:11 10° NNW 03:58:49 14° N 04:01:31 10° NE visible
25 Apr ? 23:14:44 64° ENE 23:14:44 64° ENE 23:18:46 10° NE visible
26 Apr ? 00:51:53 14° WNW 00:54:41 25° NNW 00:58:37 10° NNE visible
26 Apr ? 02:33:56 10° NW 02:36:19 14° N 02:38:46 10° NNE visible
26 Apr ? 04:15:01 10° NNW 04:18:13 17° NNE 04:21:31 10° ENE visible
26 Apr ? 21:54:40 20° E 21:54:40 20° E 21:56:52 10° ENE visible
26 Apr ? 23:31:47 43° W 23:32:57 59° NW 23:37:34 10° NE visible
27 Apr ? 01:10:42 10° WNW 01:13:56 19° NNW 01:17:19 10° NNE visible
27 Apr ? 02:53:26 10° NNW 02:55:47 13° N 02:58:11 10° NNE visible
27 Apr ? 04:33:42 10° NNW 04:37:31 22° NNE 04:41:28 10° ENE visible
27 Apr ? 22:11:19 41° SE 22:11:48 43° ESE 22:16:09 10° NE visible
27 Apr ? 23:48:25 13° W 23:51:55 35° NW 23:56:16 10° NNE visible
28 Apr ? 01:30:33 10° NW 01:33:17 15° NNW 01:36:06 10° NNE visible
28 Apr ? 03:12:30 10° NNW 03:15:13 15° NNE 03:17:59 10° NE visible
28 Apr ? 20:50:09 11° ESE 20:51:16 12° ESE 20:53:07 10° E visible
28 Apr ? 22:27:09 17° SW 22:30:25 83° SE 22:35:06 10° NE visible
29 Apr ? 00:07:21 10° W 00:11:02 24° NNW 00:14:55 10° NNE visible
29 Apr ? 01:50:20 10° NW 01:52:42 14° N 01:55:09 10° NNE visible
29 Apr ? 03:31:18 10° NNW 03:34:36 18° NNE 03:37:58 10° ENE visible
29 Apr ? 21:06:06 10° S 21:09:34 24° ESE 21:13:14 10° ENE visible
29 Apr ? 22:44:58 10° WSW 22:49:14 55° NW 22:53:51 10° NE visible
30 Apr ? 00:27:06 10° WNW 00:30:16 18° NNW 00:33:35 10° NNE visible
30 Apr ? 02:09:45 10° NNW 02:12:08 14° N 02:14:35 10° NE visible
30 Apr ? 03:49:57 10° NNW 03:53:51 23° NNE 03:57:53 10° E visible
30 Apr ? 21:23:55 10° SSW 21:28:01 47° ESE 21:32:27 10° NE visible
30 Apr ? 23:04:10 10° WSW 23:08:13 34° NW 23:12:31 10° NNE visible
01 May ? 00:46:57 10° NW 00:49:37 15° NNW 00:52:23 10° NNE visible
01 May ? 02:28:46 10° NNW 02:31:33 15° NNE 02:34:24 10° NE visible
01 May ? 04:08:33 10° NNW 04:13:00 32° NE 04:17:34 10° E visible
01 May ? 21:42:20 10° SW 21:46:39 89° SE 21:51:20 10° NE visible
01 May ? 23:23:41 10° W 23:27:19 23° NNW 23:31:09 10° NNE visible
